Home   Weather   Halle   Past weeks

Flag for Germany Past Weather in Halle, Saxony-Anhalt, Germany — Yesterday and Last 2 Weeks

Now
72 °F

Sunny.


Feels Like: 77 °F
Forecast: 50 / 78 °F
Wind: 6 mph from North

Location: Leipzig-Schkeuditz

Current Time: Aug 30, 2016 at 5:05:48 PM

Latest Report: Aug 30, 2016 at 4:20 PM


Visibility: 10 mi

Pressure: 30.27 "Hg

Humidity: 38%

Dew Point: 45 °F

Location of HalleLocation

Past Weather in Halle — Graph

°F

Halle Temperature Yesterday

Maximum temperature yesterday: 77 °F (at 11:50 AM)
Minimum temperature yesterday: 64 °F (at 11:20 PM)
Average temperature yesterday: 70 °F

High & Low Weather Summary for the Past Weeks

 TemperatureHumidityPressure
High95 °F (Aug 28, 3:50 PM)100% (Aug 17, 4:20 AM)30.33 "Hg (Aug 17, 4:20 AM)
Low48 °F (Aug 18, 4:20 AM)19% (Aug 26, 4:50 PM)29.80 "Hg (Aug 18, 3:50 PM)
Average69 °F63%30.07 "Hg
* Reported Aug 15 3:20 PM — Aug 30 3:50 PM, Halle, Weather by CustomWeather, © 2016

Note: Actual official high and low records may vary slightly from our data, if they occured in-between our weather recording intervals... More about our weather records

Advertising

Halle Weather History for the Previous 24 Hours

Scroll right to see more
 ConditionsComfort  
Time TempWeatherWind HumidityBarometerVisibility
3:50 PM
Tue, Aug 30
72 °FSunny.6 mph41%30.30 "Hg10 mi
3:20 PM70 °FPassing clouds.7 mph40%30.30 "HgN/A
2:50 PM70 °FSunny.6 mph43%30.30 "Hg10 mi
2:20 PM72 °FPartly sunny.5 mph44%30.30 "HgN/A
1:50 PM70 °FPartly sunny.6 mph43%30.30 "HgN/A
1:20 PM68 °FPartly sunny.3 mph46%30.33 "HgN/A
12:50 PM66 °FBroken clouds.5 mph49%30.33 "HgN/A
12:20 PM66 °FBroken clouds.6 mph49%30.33 "HgN/A
11:50 AM66 °FBroken clouds.6 mph52%30.33 "HgN/A
11:20 AM66 °FBroken clouds.6 mph52%30.33 "HgN/A
10:50 AM63 °FBroken clouds.5 mph59%30.33 "HgN/A
10:20 AM63 °FPartly sunny.6 mph68%30.33 "HgN/A
9:50 AM61 °FPartly sunny.5 mph72%30.33 "HgN/A
9:20 AM61 °FPartly sunny.5 mph72%30.33 "HgN/A
8:50 AM59 °FPassing clouds.5 mph77%30.30 "HgN/A
8:20 AM57 °FSunny.6 mph82%30.30 "Hg10 mi
7:50 AM55 °FSunny.6 mph88%30.30 "Hg10 mi
7:20 AM54 °FClear.5 mph88%30.27 "Hg10 mi
6:50 AM54 °FClear.5 mph88%30.27 "Hg10 mi
6:20 AM54 °FClear.7 mph88%30.27 "Hg10 mi
5:50 AM54 °FClear.7 mph88%30.24 "Hg10 mi
5:20 AM54 °FClear.7 mph88%30.24 "Hg10 mi
4:50 AM54 °FClear.6 mph94%30.24 "Hg10 mi
4:20 AM54 °FClear.6 mph94%30.24 "Hg10 mi
3:50 AM55 °FClear.5 mph88%30.24 "Hg10 mi
3:20 AM55 °FClear.6 mph88%30.24 "Hg10 mi
2:50 AM55 °FClear.8 mph88%30.24 "Hg10 mi
2:20 AM57 °FClear.7 mph88%30.24 "Hg10 mi
1:50 AM59 °FClear.6 mph82%30.21 "Hg10 mi
1:20 AM59 °FPassing clouds.7 mph82%30.21 "HgN/A
12:50 AM61 °FClear.9 mph77%30.21 "Hg10 mi
12:20 AM63 °FClear.10 mph73%30.21 "Hg10 mi
11:50 PM
Mon, Aug 29
64 °FClear.12 mph68%30.18 "Hg10 mi
11:20 PM64 °FClear.13 mph68%30.18 "Hg10 mi
10:50 PM66 °FClear.13 mph64%30.18 "Hg10 mi
10:20 PM66 °FClear.9 mph64%30.15 "Hg10 mi
9:50 PM66 °FPassing clouds.8 mph64%30.15 "HgN/A
9:20 PM66 °FClear.9 mph64%30.12 "Hg10 mi
8:50 PM66 °FSunny.7 mph64%30.12 "Hg10 mi
8:20 PM68 °FScattered clouds.8 mph60%30.09 "HgN/A
7:50 PM70 °FSunny.10 mph60%30.09 "Hg10 mi
7:20 PM70 °FSunny.12 mph60%30.09 "Hg10 mi
6:50 PM72 °FPassing clouds.13 mph50%30.07 "HgN/A
6:20 PM72 °FSunny.10 mph53%30.07 "Hg10 mi
5:50 PM72 °FPartly sunny.10 mph53%30.07 "HgN/A
5:20 PM72 °FPartly sunny.14 mph53%30.07 "HgN/A
Weather by CustomWeather, © 2016

See weather overviewHow to use our weather pages